CST,Max TemperatureF,Mean TemperatureF,Min TemperatureF,Max Dew PointF,MeanDew PointF,Min DewpointF,Max Humidity, Mean Humidity, Min Humidity, Max Sea Level PressureIn, Mean Sea Level PressureIn, Min Sea Level PressureIn, Max VisibilityMiles, Mean VisibilityMiles, Min VisibilityMiles, Max Wind SpeedMPH, Mean Wind SpeedMPH, Max Gust SpeedMPH,PrecipitationIn, CloudCover, Events, WindDirDegrees
2013-2-1,66,52,39,45,36,27,93,62,23,30.41,30.36,30.32,10,10,10,9,3,17,0.00,1,,17
2013-2-2,64,50,37,50,45,27,93,73,52,30.36,30.24,30.20,10,10,10,10,4,,0.00,1,,139
2013-2-3,69,55,39,46,34,19,93,58,15,30.29,30.20,30.14,10,10,7,9,2,,0.00,0,,340
2013-2-4,62,50,39,54,45,36,93,71,52,30.12,30.06,30.00,10,9,7,7,2,,0.00,4,Rain,101
2013-2-5,69,63,57,59,57,54,94,79,64,30.01,29.98,29.96,10,10,7,5,1,,0.00,6,,113
2013-2-6,66,62,59,59,57,55,88,80,73,30.14,30.08,30.04,7,6,0,12,5,,0.00,7,Fog,131
2013-2-7,75,68,60,57,57,55,88,66,50,29.94,29.89,29.86,10,9,5,12,5,17,0.00,3,Rain,324
2013-2-8,73,62,50,59,55,48,94,79,53,30.14,30.07,30.03,10,6,0,12,2,16,0.00,7,Fog,310
2013-2-9,64,56,48,55,51,43,82,76,68,30.25,30.17,30.12,7,7,7,13,9,18,0.00,7,,96
2013-2-10,71,68,66,66,64,61,83,82,78,30.04,30.00,29.95,7,7,5,15,12,23,0.00,8,,164
2013-2-11,69,63,57,66,56,54,88,82,68,30.12,30.07,30.03,7,6,2,14,7,25,0.00,8,Rain,38
2013-2-12,73,65,57,68,60,55,94,89,83,29.97,29.85,29.75,7,3,1,9,5,18,0.00,8,Rain,120
2013-2-13,55,52,46,48,46,43,88,82,72,30.05,29.99,29.95,10,7,5,12,6,17,0.00,5,Rain,335
2013-2-14,62,50,39,43,39,34,93,63,34,30.17,30.11,30.06,10,9,5,7,2,,0.00,0,,0
2013-2-15,66,50,33,45,35,28,93,56,24,30.19,30.14,30.07,10,9,7,5,1,,0.00,0,,180
2013-2-16,53,44,35,34,22,10,87,49,19,30.30,30.24,30.21,10,10,10,17,8,29,0.00,0,,330
2013-2-17,57,47,37,36,32,25,76,53,36,30.39,30.28,30.09,10,10,10,10,5,,0.00,0,,143
2013-2-18,64,58,53,55,49,45,82,67,52,30.24,30.14,30.06,10,9,5,20,13,29,0.00,6,Rain,144
2013-2-19,66,60,51,55,37,19,88,46,17,30.21,30.15,30.07,10,10,7,17,12,25,0.00,1,,2
2013-2-20,59,52,44,46,27,18,72,42,24,30.27,30.19,30.12,10,10,10,12,4,,0.00,0,,99
2013-2-21,66,60,53,63,55,41,88,76,62,30.03,29.93,29.83,7,7,7,15,10,23,0.00,8,,126
2013-2-22,69,64,60,61,52,45,88,65,40,29.99,29.93,29.90,7,7,5,12,6,,0.00,8,Rain,36
2013-2-23,60,58,57,55,53,52,88,81,77,29.94,29.91,29.85,10,9,7,8,6,16,0.00,7,,5
2013-2-24,68,58,48,55,52,45,87,68,59,29.99,29.91,29.83,10,10,5,10,5,,0.00,5,Rain,109
2013-2-25,69,65,62,66,60,57,94,86,82,29.76,29.63,29.49,7,6,2,16,10,23,0.00,8,Rain-Thunderstorm,131
2013-2-26,60,54,48,45,37,32,82,53,39,29.91,29.79,29.72,10,10,10,16,10,23,0.00,2,,262
2013-2-27,68,57,46,45,37,30,93,48,24,30.04,29.99,29.95,7,7,7,12,3,18,0.00,0,,245
2013-2-28,57,47,37,36,31,25,93,47,31,30.13,30.09,30.06,10,8,7,12,6,,0.00,0,,329